EWG53F EDDS-LIEE

Flight info

Callsign EWG53F
Flight time 1h 30m
Altitude 35000
Route ROTWE5B ROTWE Y126 TUBLO N850 NATOR DCT TRA DCT RIPUS DCT GERSA DCT SOSON DCT ODINA DCT EKPAL DCT TINKU DCT MAREL/N0400F190 L12 TINTO Q710 GITRI Z924 ADRUX Q125 KOVAS KOVAS1W
Aircraft A320/M-VGDW/C

Departure

Time 2026-05-05 16:18
Airport Stuttgart Airport (EDDS)

Arrival

Time 2026-05-05 17:48
Airport Cagliari Elmas Airport (LIEE)
Time Latitude Longitude Altitude Speed Heading
2026-05-05 15:30 48.68930 9.19652 1291 ft 0 kts 343°
2026-05-05 16:02 48.68919 9.19657 1285 ft 4 kts 346°
2026-05-05 16:03 48.68893 9.19665 1285 ft 4 kts 359°
2026-05-05 16:03 48.68867 9.19660 1285 ft 4 kts 31°
2026-05-05 16:03 48.68854 9.19641 1289 ft 1 kts 73°
2026-05-05 16:03 48.68853 9.19636 1289 ft 0 kts 73°
2026-05-05 16:06 48.68866 9.19702 1285 ft 15 kts 74°
2026-05-05 16:06 48.68883 9.19847 1285 ft 13 kts 112°
2026-05-05 16:06 48.68819 9.19916 1287 ft 10 kts 138°
2026-05-05 16:07 48.68817 9.19990 1287 ft 7 kts 63°
2026-05-05 16:07 48.68841 9.20065 1287 ft 17 kts 70°
2026-05-05 16:07 48.68885 9.20287 1286 ft 20 kts 73°
2026-05-05 16:07 48.68926 9.20497 1286 ft 21 kts 73°
2026-05-05 16:08 48.68967 9.20717 1287 ft 22 kts 75°
2026-05-05 16:08 48.69010 9.20945 1288 ft 23 kts 73°
2026-05-05 16:08 48.69056 9.21179 1287 ft 24 kts 73°
2026-05-05 16:08 48.69099 9.21411 1289 ft 22 kts 74°
2026-05-05 16:09 48.69139 9.21624 1289 ft 20 kts 75°
2026-05-05 16:09 48.69178 9.21829 1288 ft 21 kts 74°
2026-05-05 16:09 48.69219 9.22042 1285 ft 21 kts 73°
2026-05-05 16:09 48.69260 9.22264 1285 ft 22 kts 74°
2026-05-05 16:10 48.69304 9.22491 1285 ft 23 kts 74°
2026-05-05 16:10 48.69350 9.22728 1285 ft 24 kts 73°
2026-05-05 16:10 48.69389 9.22971 1285 ft 23 kts 75°
2026-05-05 16:10 48.69440 9.23201 1289 ft 23 kts 75°
2026-05-05 16:11 48.69485 9.23441 1289 ft 24 kts 74°
2026-05-05 16:11 48.69603 9.24168 1285 ft 16 kts 111°
2026-05-05 16:12 48.69550 9.24275 1288 ft 10 kts 142°
2026-05-05 16:12 48.69510 9.24308 1286 ft 0 kts 163°
2026-05-05 16:15 48.69441 9.24340 1287 ft 13 kts 163°
2026-05-05 16:15 48.69385 9.24288 1285 ft 0 kts 253°
2026-05-05 16:16 48.69385 9.24287 1285 ft 2 kts 253°
2026-05-05 16:17 48.69101 9.22793 1290 ft 136 kts 253°
2026-05-05 16:17 48.68818 9.21253 1588 ft 157 kts 255°
2026-05-05 16:18 48.68233 9.18174 2672 ft 162 kts 255°
2026-05-05 16:18 48.67900 9.16421 2897 ft 184 kts 254°
2026-05-05 16:18 48.67078 9.12466 3592 ft 209 kts 251°
2026-05-05 16:19 48.66592 9.10294 3977 ft 229 kts 250°
2026-05-05 16:19 48.66062 9.07918 4379 ft 249 kts 252°
2026-05-05 16:19 48.65145 9.02651 5958 ft 262 kts 254°
2026-05-05 16:20 48.64213 8.97296 7655 ft 266 kts 252°
2026-05-05 16:20 48.62318 8.92608 9251 ft 269 kts 217°
2026-05-05 16:21 48.59223 8.89152 10320 ft 294 kts 219°
2026-05-05 16:22 48.54155 8.82291 11109 ft 349 kts 222°
2026-05-05 16:22 48.50503 8.77318 12405 ft 358 kts 222°
2026-05-05 16:23 48.46777 8.72233 13678 ft 366 kts 222°
2026-05-05 16:23 48.44877 8.69636 14233 ft 370 kts 222°
2026-05-05 16:23 48.41018 8.64391 15356 ft 377 kts 222°
2026-05-05 16:24 48.39060 8.61744 15892 ft 380 kts 221°
2026-05-05 16:24 48.37088 8.59077 16439 ft 383 kts 221°
2026-05-05 16:24 48.33094 8.53687 17486 ft 390 kts 221°
2026-05-05 16:25 48.31063 8.50949 17999 ft 393 kts 221°
2026-05-05 16:25 48.26978 8.45451 18914 ft 398 kts 221°
2026-05-05 16:25 48.24891 8.42657 19367 ft 400 kts 221°
2026-05-05 16:26 48.20666 8.37209 20267 ft 404 kts 214°
2026-05-05 16:26 48.15516 8.33892 21125 ft 409 kts 192°
2026-05-05 16:27 48.12736 8.33460 21533 ft 413 kts 181°
2026-05-05 16:27 48.09848 8.33857 21934 ft 415 kts 172°
2026-05-05 16:27 48.07003 8.34546 22310 ft 418 kts 172°
2026-05-05 16:27 48.04119 8.35240 22714 ft 421 kts 172°
2026-05-05 16:28 48.01217 8.35939 23102 ft 423 kts 172°
2026-05-05 16:28 47.98300 8.36645 23478 ft 426 kts 172°
2026-05-05 16:28 47.95372 8.37357 23798 ft 428 kts 172°
2026-05-05 16:28 47.92429 8.38068 24140 ft 429 kts 173°
2026-05-05 16:29 47.89477 8.38775 24481 ft 430 kts 173°
2026-05-05 16:29 47.86511 8.39483 24810 ft 432 kts 173°
2026-05-05 16:29 47.83542 8.40197 25132 ft 433 kts 173°
2026-05-05 16:29 47.80733 8.40876 25436 ft 434 kts 172°
2026-05-05 16:30 47.77617 8.41628 25759 ft 436 kts 173°
2026-05-05 16:30 47.74623 8.42346 26058 ft 438 kts 173°
2026-05-05 16:30 47.72007 8.42969 26309 ft 439 kts 173°
2026-05-05 16:30 47.68995 8.43681 26615 ft 440 kts 173°
2026-05-05 16:31 47.65970 8.44296 26895 ft 441 kts 175°
2026-05-05 16:31 47.62907 8.44784 27180 ft 442 kts 176°
2026-05-05 16:31 47.59861 8.45191 27516 ft 442 kts 177°
2026-05-05 16:31 47.56772 8.45576 27946 ft 440 kts 177°
2026-05-05 16:32 47.54020 8.45924 28303 ft 439 kts 176°
2026-05-05 16:32 47.51431 8.46270 28647 ft 438 kts 176°
2026-05-05 16:32 47.48438 8.46693 29041 ft 437 kts 176°
2026-05-05 16:32 47.45414 8.47138 29443 ft 435 kts 176°
2026-05-05 16:33 47.42400 8.47592 29839 ft 434 kts 176°
2026-05-05 16:33 47.39399 8.48042 30194 ft 433 kts 176°
2026-05-05 16:33 47.36377 8.48488 30518 ft 432 kts 176°
2026-05-05 16:33 47.33412 8.48921 30819 ft 432 kts 176°
2026-05-05 16:34 47.30425 8.49356 31146 ft 431 kts 177°
2026-05-05 16:34 47.27438 8.49790 31478 ft 430 kts 177°
2026-05-05 16:34 47.24459 8.50223 31798 ft 429 kts 177°
2026-05-05 16:34 47.21491 8.50656 32130 ft 428 kts 177°
2026-05-05 16:35 47.18532 8.51089 32491 ft 427 kts 177°
2026-05-05 16:35 47.15575 8.51525 32830 ft 426 kts 177°
2026-05-05 16:35 47.12629 8.51961 33153 ft 425 kts 177°
2026-05-05 16:35 47.09683 8.52391 33495 ft 425 kts 178°
2026-05-05 16:36 47.06737 8.52816 33860 ft 424 kts 178°
2026-05-05 16:36 47.03829 8.53232 34133 ft 423 kts 178°
2026-05-05 16:36 47.00886 8.53653 34423 ft 423 kts 178°
2026-05-05 16:36 46.97950 8.54073 34688 ft 423 kts 178°
2026-05-05 16:37 46.95036 8.54490 34861 ft 424 kts 178°
2026-05-05 16:37 46.92092 8.54911 34916 ft 427 kts 178°
2026-05-05 16:37 46.86167 8.55769 34912 ft 428 kts 178°
2026-05-05 16:38 46.80250 8.56627 34912 ft 428 kts 179°
2026-05-05 16:38 46.74318 8.57475 34916 ft 428 kts 179°
2026-05-05 16:39 46.68413 8.58312 34931 ft 428 kts 178°
2026-05-05 16:39 46.62485 8.59461 34947 ft 430 kts 175°
2026-05-05 16:40 46.56560 8.60896 34956 ft 430 kts 176°
2026-05-05 16:40 46.50675 8.62075 34966 ft 429 kts 177°
2026-05-05 16:41 46.44746 8.63133 34973 ft 429 kts 178°
2026-05-05 16:41 46.38819 8.64201 34974 ft 428 kts 177°
2026-05-05 16:42 46.32898 8.65307 34979 ft 430 kts 177°
2026-05-05 16:42 46.26951 8.66434 34976 ft 430 kts 177°
2026-05-05 16:43 46.21014 8.67537 34981 ft 430 kts 178°
2026-05-05 16:43 46.16166 8.68430 34982 ft 430 kts 177°
2026-05-05 16:44 46.10557 8.69461 34975 ft 431 kts 177°
2026-05-05 16:44 46.04601 8.70573 34977 ft 432 kts 177°
2026-05-05 16:45 45.98729 8.71667 34977 ft 432 kts 177°
2026-05-05 16:45 45.92758 8.72773 34980 ft 433 kts 177°
2026-05-05 16:46 45.86773 8.73874 34974 ft 433 kts 177°
2026-05-05 16:46 45.80787 8.74971 34963 ft 434 kts 177°
2026-05-05 16:47 45.74799 8.76067 34952 ft 434 kts 177°
2026-05-05 16:47 45.68795 8.77157 34955 ft 435 kts 177°
2026-05-05 16:48 45.62789 8.78249 34955 ft 435 kts 177°
2026-05-05 16:48 45.56761 8.79344 34958 ft 436 kts 177°
2026-05-05 16:49 45.50760 8.80433 34983 ft 436 kts 177°
2026-05-05 16:49 45.44740 8.81533 34980 ft 436 kts 177°
2026-05-05 16:50 45.38712 8.82625 34976 ft 436 kts 178°
2026-05-05 16:50 45.32699 8.83710 34976 ft 436 kts 178°
2026-05-05 16:51 45.26664 8.84799 34972 ft 437 kts 178°
2026-05-05 16:51 45.20627 8.85873 34954 ft 437 kts 178°
2026-05-05 16:52 45.14623 8.86945 34956 ft 437 kts 178°
2026-05-05 16:52 45.08578 8.88030 34955 ft 437 kts 178°
2026-05-05 16:53 45.02540 8.89109 34954 ft 437 kts 178°
2026-05-05 16:53 44.96502 8.90190 34955 ft 438 kts 178°
2026-05-05 16:54 44.90480 8.91253 34946 ft 438 kts 178°
2026-05-05 16:54 44.84440 8.92319 34947 ft 438 kts 178°
2026-05-05 16:55 44.78401 8.93395 34938 ft 438 kts 178°
2026-05-05 16:55 44.72362 8.94464 34940 ft 439 kts 178°
2026-05-05 16:56 44.66280 8.95527 34946 ft 439 kts 178°
2026-05-05 16:56 44.60230 8.96594 34952 ft 439 kts 179°
2026-05-05 16:57 44.54175 8.97659 34950 ft 439 kts 179°
2026-05-05 16:57 44.48100 8.98727 34951 ft 440 kts 179°
2026-05-05 16:58 44.42022 8.99787 34947 ft 440 kts 179°
2026-05-05 16:58 44.35924 9.00841 34952 ft 441 kts 179°
2026-05-05 16:59 44.29872 9.01903 34948 ft 441 kts 179°
2026-05-05 16:59 44.23778 9.02966 34946 ft 441 kts 179°
2026-05-05 17:00 44.17678 9.04024 34941 ft 442 kts 179°
2026-05-05 17:00 44.11574 9.05076 34934 ft 442 kts 180°
2026-05-05 17:01 44.05464 9.06128 34930 ft 443 kts 180°
2026-05-05 17:01 43.99327 9.07185 34928 ft 443 kts 180°
2026-05-05 17:02 43.93236 9.08237 34940 ft 443 kts 180°
2026-05-05 17:02 43.87092 9.09296 34942 ft 444 kts 180°
2026-05-05 17:03 43.80959 9.10340 34956 ft 443 kts 180°
2026-05-05 17:03 43.74854 9.11368 34953 ft 443 kts 180°
2026-05-05 17:04 43.68736 9.12420 34951 ft 443 kts 180°
2026-05-05 17:04 43.62623 9.13457 34954 ft 442 kts 180°
2026-05-05 17:05 43.56529 9.14493 34955 ft 442 kts 180°
2026-05-05 17:05 43.50420 9.15532 34955 ft 441 kts 180°
2026-05-05 17:06 43.44323 9.16559 34959 ft 441 kts 180°
2026-05-05 17:06 43.38235 9.17579 34957 ft 441 kts 180°
2026-05-05 17:07 43.32148 9.18610 34962 ft 441 kts 181°
2026-05-05 17:07 43.26084 9.19629 34962 ft 440 kts 181°
2026-05-05 17:08 43.20010 9.20643 34965 ft 440 kts 181°
2026-05-05 17:08 43.13912 9.21655 34967 ft 440 kts 181°
2026-05-05 17:09 43.07853 9.22675 34966 ft 439 kts 181°
2026-05-05 17:09 43.01820 9.23686 34966 ft 438 kts 181°
2026-05-05 17:10 42.95739 9.24703 34971 ft 438 kts 181°
2026-05-05 17:10 42.89710 9.25708 34969 ft 437 kts 181°
2026-05-05 17:11 42.83665 9.26713 34974 ft 437 kts 181°
2026-05-05 17:11 42.77638 9.27706 34970 ft 437 kts 181°
2026-05-05 17:12 42.71579 9.28698 34970 ft 437 kts 181°
2026-05-05 17:12 42.65567 9.29684 34965 ft 437 kts 181°
2026-05-05 17:13 42.59512 9.30684 34969 ft 438 kts 181°
2026-05-05 17:13 42.53456 9.31679 34966 ft 438 kts 181°
2026-05-05 17:14 42.47386 9.32666 34967 ft 439 kts 181°
2026-05-05 17:14 42.41313 9.33653 34969 ft 439 kts 181°
2026-05-05 17:15 42.35288 9.34638 34969 ft 439 kts 181°
2026-05-05 17:15 42.29235 9.35626 34958 ft 438 kts 181°
2026-05-05 17:16 42.23154 9.36614 34956 ft 439 kts 181°
2026-05-05 17:16 42.17090 9.37609 34949 ft 439 kts 181°
2026-05-05 17:17 42.11029 9.38588 34956 ft 439 kts 181°
2026-05-05 17:17 42.04938 9.39567 34958 ft 440 kts 181°
2026-05-05 17:18 41.98869 9.40546 34961 ft 440 kts 181°
2026-05-05 17:18 41.92777 9.41521 34961 ft 440 kts 181°
2026-05-05 17:19 41.86730 9.42485 34966 ft 441 kts 181°
2026-05-05 17:19 41.80632 9.43472 34969 ft 440 kts 181°
2026-05-05 17:20 41.74531 9.44454 34977 ft 440 kts 181°
2026-05-05 17:20 41.68449 9.45425 34970 ft 440 kts 181°
2026-05-05 17:21 41.62387 9.46391 34969 ft 439 kts 181°
2026-05-05 17:22 41.53272 9.47842 34972 ft 439 kts 181°
2026-05-05 17:22 41.47254 9.48790 34972 ft 438 kts 181°
2026-05-05 17:23 41.41178 9.49748 34968 ft 438 kts 181°
2026-05-05 17:23 41.35122 9.50713 34966 ft 438 kts 181°
2026-05-05 17:24 41.29065 9.51671 34956 ft 439 kts 181°
2026-05-05 17:24 41.23015 9.52624 34953 ft 439 kts 181°
2026-05-05 17:25 41.16911 9.53574 34955 ft 440 kts 181°
2026-05-05 17:25 41.10852 9.54524 34952 ft 440 kts 180°
2026-05-05 17:26 41.04747 9.55486 34953 ft 441 kts 180°
2026-05-05 17:26 40.98652 9.56443 34953 ft 441 kts 180°
2026-05-05 17:27 40.92580 9.57394 34950 ft 442 kts 180°
2026-05-05 17:27 40.86448 9.58342 34950 ft 443 kts 180°
2026-05-05 17:28 40.80325 9.59279 34952 ft 443 kts 181°
2026-05-05 17:28 40.78293 9.59399 34942 ft 434 kts 192°
2026-05-05 17:28 40.74630 9.57833 34947 ft 409 kts 219°
2026-05-05 17:28 40.72641 9.55236 34945 ft 397 kts 241°
2026-05-05 17:29 40.71864 9.53085 34943 ft 392 kts 254°
2026-05-05 17:29 40.71160 9.49602 34805 ft 397 kts 252°
2026-05-05 17:29 40.69827 9.46416 34574 ft 402 kts 231°
2026-05-05 17:29 40.67594 9.44143 34325 ft 415 kts 210°
2026-05-05 17:30 40.64801 9.43012 33992 ft 427 kts 198°
2026-05-05 17:30 40.61847 9.42300 33011 ft 434 kts 195°
2026-05-05 17:30 40.58870 9.41655 32180 ft 434 kts 196°
2026-05-05 17:30 40.55899 9.40894 31246 ft 435 kts 198°
2026-05-05 17:31 40.52955 9.39962 30427 ft 435 kts 200°
2026-05-05 17:31 40.50038 9.38887 29287 ft 438 kts 202°
2026-05-05 17:31 40.47102 9.37709 28251 ft 439 kts 202°
2026-05-05 17:31 40.44186 9.36506 27238 ft 440 kts 202°
2026-05-05 17:32 40.41263 9.35307 26123 ft 442 kts 201°
2026-05-05 17:32 40.38336 9.34134 25004 ft 447 kts 201°
2026-05-05 17:32 40.35348 9.32970 23890 ft 450 kts 200°
2026-05-05 17:32 40.32321 9.31816 22784 ft 451 kts 200°
2026-05-05 17:33 40.29317 9.30685 21997 ft 445 kts 199°
2026-05-05 17:33 40.26358 9.29573 21221 ft 439 kts 199°
2026-05-05 17:33 40.23434 9.28473 20426 ft 435 kts 199°
2026-05-05 17:33 40.20578 9.27392 19664 ft 432 kts 199°
2026-05-05 17:34 40.17706 9.26300 18908 ft 428 kts 199°
2026-05-05 17:34 40.14845 9.25210 18286 ft 423 kts 198°
2026-05-05 17:34 40.12040 9.24137 17946 ft 417 kts 199°
2026-05-05 17:34 40.09253 9.23070 16941 ft 419 kts 198°
2026-05-05 17:35 40.06461 9.22000 16054 ft 418 kts 198°
2026-05-05 17:35 40.03698 9.20947 15365 ft 414 kts 198°
2026-05-05 17:35 40.00940 9.19903 14685 ft 410 kts 198°
2026-05-05 17:35 39.98214 9.18875 14046 ft 405 kts 198°
2026-05-05 17:36 39.95524 9.17864 13414 ft 399 kts 198°
2026-05-05 17:36 39.92876 9.16872 12798 ft 393 kts 198°
2026-05-05 17:36 39.90268 9.15896 12207 ft 386 kts 198°
2026-05-05 17:36 39.87711 9.14935 11613 ft 381 kts 198°
2026-05-05 17:37 39.85201 9.13990 11233 ft 371 kts 198°
2026-05-05 17:37 39.82777 9.13125 11100 ft 348 kts 197°
2026-05-05 17:37 39.80530 9.12369 10972 ft 320 kts 196°
2026-05-05 17:37 39.78455 9.11691 10848 ft 296 kts 196°
2026-05-05 17:38 39.76506 9.11055 10474 ft 284 kts 197°
2026-05-05 17:38 39.74615 9.10431 10148 ft 278 kts 197°
2026-05-05 17:38 39.72743 9.09805 9934 ft 277 kts 197°
2026-05-05 17:38 39.70879 9.09180 9994 ft 277 kts 197°
2026-05-05 17:39 39.69010 9.08553 10001 ft 278 kts 197°
2026-05-05 17:39 39.67135 9.07923 10000 ft 278 kts 197°
2026-05-05 17:39 39.65261 9.07301 10001 ft 278 kts 194°
2026-05-05 17:39 39.63323 9.07051 9810 ft 284 kts 182°
2026-05-05 17:40 39.61326 9.07078 9286 ft 286 kts 181°
2026-05-05 17:40 39.59350 9.07132 8569 ft 284 kts 181°
2026-05-05 17:40 39.57366 9.07194 7809 ft 285 kts 181°
2026-05-05 17:40 39.55382 9.07254 7193 ft 281 kts 182°
2026-05-05 17:41 39.53514 9.06955 6845 ft 263 kts 198°
2026-05-05 17:41 39.51898 9.06001 6489 ft 250 kts 214°
2026-05-05 17:41 39.50548 9.04674 6112 ft 239 kts 219°
2026-05-05 17:41 39.49252 9.03373 5735 ft 235 kts 219°
2026-05-05 17:42 39.47953 9.02074 5357 ft 235 kts 218°
2026-05-05 17:42 39.46658 9.00781 4994 ft 235 kts 218°
2026-05-05 17:42 39.45379 8.99504 4600 ft 230 kts 218°
2026-05-05 17:42 39.44126 8.98255 4226 ft 225 kts 218°
2026-05-05 17:43 39.42901 8.97030 3854 ft 220 kts 218°
2026-05-05 17:43 39.41704 8.95833 3489 ft 216 kts 217°
2026-05-05 17:43 39.40502 8.94632 3124 ft 220 kts 218°
2026-05-05 17:43 39.39301 8.93444 2973 ft 212 kts 214°
2026-05-05 17:44 39.37969 8.92884 2973 ft 201 kts 178°
2026-05-05 17:44 39.36691 8.93500 2974 ft 200 kts 144°
2026-05-05 17:44 39.35660 8.94656 2869 ft 187 kts 144°
2026-05-05 17:44 39.34660 8.95548 2719 ft 171 kts 146°
2026-05-05 17:45 39.33703 8.96417 2448 ft 166 kts 146°
2026-05-05 17:45 39.32784 8.97240 2262 ft 156 kts 147°
2026-05-05 17:45 39.31878 8.98029 1871 ft 161 kts 149°
2026-05-05 17:45 39.30904 8.98826 1389 ft 170 kts 146°
2026-05-05 17:46 39.30025 8.99793 1127 ft 161 kts 136°
2026-05-05 17:46 39.29234 9.00743 978 ft 148 kts 139°
2026-05-05 17:46 39.28481 9.01606 686 ft 141 kts 137°
2026-05-05 17:46 39.27758 9.02428 505 ft 138 kts 140°
2026-05-05 17:47 39.27046 9.03245 312 ft 136 kts 140°
2026-05-05 17:47 39.26335 9.04043 124 ft 135 kts 139°
2026-05-05 17:47 39.25668 9.04825 20 ft 114 kts 140°
2026-05-05 17:47 39.25200 9.05353 17 ft 65 kts 138°
2026-05-05 17:48 39.24986 9.05604 18 ft 28 kts 136°
2026-05-05 17:48 39.24845 9.05775 18 ft 28 kts 137°
2026-05-05 17:48 39.24699 9.05945 16 ft 29 kts 131°
2026-05-05 17:48 39.24708 9.06111 16 ft 15 kts 69°
2026-05-05 17:49 39.24780 9.06128 16 ft 11 kts 330°
2026-05-05 17:49 39.24836 9.06067 16 ft 10 kts 317°
2026-05-05 17:49 39.24889 9.06004 16 ft 16 kts 317°
2026-05-05 17:49 39.24999 9.05874 17 ft 25 kts 317°
2026-05-05 17:50 39.25112 9.05780 17 ft 15 kts
2026-05-05 17:50 39.25178 9.05839 17 ft 10 kts 339°
2026-05-05 17:50 39.25229 9.05793 17 ft 8 kts 321°
2026-05-05 17:50 39.25271 9.05748 17 ft 7 kts 320°
2026-05-05 17:51 39.25306 9.05708 17 ft 6 kts 317°
2026-05-05 17:51 39.25347 9.05699 17 ft 9 kts 30°
2026-05-05 17:51 39.25384 9.05756 17 ft 8 kts 54°
2026-05-05 17:51 39.25378 9.05792 19 ft 3 kts 128°
2026-05-05 17:52 39.25365 9.05816 18 ft 3 kts 141°
2026-05-05 17:52 39.25349 9.05831 17 ft 2 kts 145°
2026-05-05 17:52 39.25345 9.05834 17 ft 0 kts 146°